When you browse on this site, cookies collect data to enhance your experience and personalize the content and advertising you see.
Visit our Privacy Policy to learn more. By continuing to use the site, you agree to this use of cookies and data.
  • In Österreich
  • Länderverzeichnis
  • Für 7 Tage
  • Wassertemperatur
  • Wetterkarte
  • News
  • Widgets
  • user-avatar
    Anmelden

    Stündliche Wetter Paispamba

    Heute, 17 September, Dienstag

    Zeit Temperatur Niederschläge Wind Luftdruck Luftfeuchtigkeit
    00:00 +11°C° 0 mm 1 m/S 568 mmHg 89%
    01:00 +11°C° 0 mm 1 m/S 568 mmHg 88%
    02:00 +11°C° 0 mm 1 m/S 568 mmHg 87%
    03:00 +11°C° 0 mm 1 m/S 568 mmHg 86%
    04:00 +11°C° 0 mm 1 m/S 568 mmHg 86%
    05:00 +12°C° 0 mm 1 m/S 568 mmHg 83%
    06:00 +12°C° 0 mm 1 m/S 569 mmHg 81%
    07:00 +13°C° 0 mm 1 m/S 570 mmHg 78%
    08:00 +15°C° 0 mm 1 m/S 571 mmHg 72%
    09:00 +18°C° 0 mm 1 m/S 572 mmHg 65%
    10:00 +21°C° 0 mm 1 m/S 573 mmHg 58%
    11:00 +21°C° 0.2 mm 1 m/S 573 mmHg 57%
    12:00 +21°C° 0.2 mm 2 m/S 573 mmHg 56%
    13:00 +21°C° 0.2 mm 2 m/S 572 mmHg 55%
    14:00 +20°C° 0.8 mm 2 m/S 572 mmHg 61%
    15:00 +20°C° 0.8 mm 1 m/S 571 mmHg 68%
    16:00 +19°C° 0.8 mm 1 m/S 570 mmHg 75%
    17:00 +16°C° 0.6 mm 1 m/S 569 mmHg 81%
    18:00 +15°C° 0.6 mm 1 m/S 569 mmHg 87%
    19:00 +13°C° 0.6 mm 1 m/S 568 mmHg 94%
    20:00 +12°C° 0.3 mm 1 m/S 568 mmHg 92%
    21:00 +12°C° 0.3 mm 1 m/S 568 mmHg 91%
    22:00 +11°C° 0.3 mm 1 m/S 569 mmHg 90%
    23:00 +11°C° 0.1 mm 1 m/S 568 mmHg 89%

    Morgen, 18 September, Mittwoch

    Zeit Temperatur Niederschläge Wind Luftdruck Luftfeuchtigkeit
    00:00 +11°C° 0.1 mm 1 m/S 568 mmHg 88%
    01:00 +11°C° 0.1 mm 1 m/S 568 mmHg 86%
    02:00 +11°C° 0 mm 1 m/S 568 mmHg 86%
    03:00 +11°C° 0 mm 1 m/S 568 mmHg 85%
    04:00 +11°C° 0 mm 1 m/S 567 mmHg 84%
    05:00 +12°C° 0 mm 1 m/S 568 mmHg 82%
    06:00 +12°C° 0 mm 1 m/S 569 mmHg 80%
    07:00 +13°C° 0 mm 1 m/S 569 mmHg 78%
    08:00 +15°C° 0 mm 1 m/S 571 mmHg 72%
    09:00 +18°C° 0 mm 1 m/S 572 mmHg 65%
    10:00 +20°C° 0 mm 2 m/S 573 mmHg 59%
    11:00 +20°C° 0.5 mm 1 m/S 572 mmHg 63%
    12:00 +20°C° 0.5 mm 1 m/S 572 mmHg 67%
    13:00 +20°C° 0.5 mm 1 m/S 571 mmHg 71%
    14:00 +19°C° 1.5 mm 1 m/S 570 mmHg 77%
    15:00 +18°C° 1.5 mm 1 m/S 569 mmHg 82%
    16:00 +15°C° 1.5 mm 0 m/S 569 mmHg 88%
    17:00 +14°C° 0.8 mm 0 m/S 568 mmHg 91%
    18:00 +13°C° 0.8 mm 0 m/S 568 mmHg 94%
    19:00 +12°C° 0.8 mm 0 m/S 568 mmHg 97%
    20:00 +12°C° 0.6 mm 0 m/S 568 mmHg 97%
    21:00 +12°C° 0.6 mm 0 m/S 569 mmHg 97%
    22:00 +12°C° 0.6 mm 0 m/S 569 mmHg 98%
    23:00 +12°C° 1 mm 0 m/S 569 mmHg 98%

    übermorgen, 19 September, Donnerstag

    Zeit Temperatur Niederschläge Wind Luftdruck Luftfeuchtigkeit
    00:00 +12°C° 1 mm 0 m/S 568 mmHg 98%
    01:00 +12°C° 1 mm 0 m/S 568 mmHg 98%
    02:00 +12°C° 0.5 mm 0 m/S 568 mmHg 98%
    03:00 +12°C° 0.5 mm 0 m/S 568 mmHg 98%
    04:00 +12°C° 0.5 mm 0 m/S 568 mmHg 98%
    05:00 +12°C° 0.2 mm 0 m/S 568 mmHg 97%
    06:00 +12°C° 0.2 mm 0 m/S 569 mmHg 97%
    07:00 +12°C° 0.2 mm 0 m/S 569 mmHg 96%
    08:00 +14°C° 0.2 mm 0 m/S 570 mmHg 89%
    09:00 +18°C° 0.2 mm 1 m/S 571 mmHg 82%
    10:00 +19°C° 0.2 mm 1 m/S 572 mmHg 75%
    11:00 +19°C° 1.1 mm 1 m/S 571 mmHg 77%
    12:00 +19°C° 1.1 mm 1 m/S 571 mmHg 79%
    13:00 +19°C° 1.1 mm 1 m/S 570 mmHg 81%
    14:00 +18°C° 1.8 mm 1 m/S 570 mmHg 84%
    15:00 +18°C° 1.8 mm 1 m/S 569 mmHg 87%
    16:00 +16°C° 1.8 mm 1 m/S 569 mmHg 90%
    17:00 +15°C° 1.2 mm 1 m/S 568 mmHg 93%
    18:00 +14°C° 1.2 mm 1 m/S 568 mmHg 96%
    19:00 +13°C° 1.2 mm 1 m/S 568 mmHg 98%
    20:00 +12°C° 0.5 mm 0 m/S 568 mmHg 98%
    21:00 +12°C° 0.5 mm 0 m/S 568 mmHg 98%
    22:00 +12°C° 0.5 mm 0 m/S 569 mmHg 98%
    23:00 +12°C° 0.3 mm 0 m/S 569 mmHg 98%

    20 September, Freitag

    Zeit Temperatur Niederschläge Wind Luftdruck Luftfeuchtigkeit
    00:00 +12°C° 0.3 mm 0 m/S 569 mmHg 98%
    01:00 +12°C° 0.3 mm 0 m/S 568 mmHg 98%
    02:00 +12°C° 0.3 mm 0 m/S 568 mmHg 98%
    03:00 +11°C° 0.3 mm 0 m/S 568 mmHg 97%
    04:00 +11°C° 0.3 mm 0 m/S 568 mmHg 97%
    05:00 +11°C° 0.4 mm 0 m/S 568 mmHg 96%
    06:00 +12°C° 0.4 mm 0 m/S 569 mmHg 96%
    07:00 +12°C° 0.4 mm 0 m/S 569 mmHg 95%
    08:00 +13°C° 0.4 mm 0 m/S 570 mmHg 92%
    09:00 +15°C° 0.4 mm 1 m/S 571 mmHg 90%
    10:00 +15°C° 0.4 mm 1 m/S 571 mmHg 87%
    11:00 +16°C° 0.5 mm 1 m/S 571 mmHg 82%
    12:00 +18°C° 0.5 mm 1 m/S 572 mmHg 78%
    13:00 +19°C° 0.5 mm 1 m/S 572 mmHg 73%
    14:00 +19°C° 0.8 mm 1 m/S 571 mmHg 75%
    15:00 +19°C° 0.8 mm 1 m/S 571 mmHg 77%
    16:00 +19°C° 0.8 mm 1 m/S 570 mmHg 79%
    17:00 +16°C° 0.8 mm 1 m/S 570 mmHg 84%
    18:00 +15°C° 0.8 mm 1 m/S 569 mmHg 89%
    19:00 +13°C° 0.8 mm 1 m/S 569 mmHg 93%
    20:00 +13°C° 0.3 mm 1 m/S 569 mmHg 93%
    21:00 +12°C° 0.3 mm 1 m/S 569 mmHg 93%
    22:00 +12°C° 0.3 mm 1 m/S 569 mmHg 93%
    23:00 +12°C° 0.1 mm 1 m/S 569 mmHg 92%

    21 September, Samstag

    Zeit Temperatur Niederschläge Wind Luftdruck Luftfeuchtigkeit
    00:00 +12°C° 0.1 mm 1 m/S 569 mmHg 92%
    01:00 +12°C° 0.1 mm 1 m/S 569 mmHg 92%
    02:00 +12°C° 0.2 mm 1 m/S 569 mmHg 92%
    03:00 +12°C° 0.2 mm 1 m/S 569 mmHg 92%
    04:00 +12°C° 0.2 mm 1 m/S 568 mmHg 92%
    05:00 +12°C° 0 mm 1 m/S 569 mmHg 91%
    06:00 +12°C° 0 mm 1 m/S 569 mmHg 90%
    07:00 +12°C° 0 mm 1 m/S 570 mmHg 89%
    08:00 +15°C° 0.1 mm 1 m/S 571 mmHg 82%
    09:00 +18°C° 0.1 mm 1 m/S 572 mmHg 75%
    10:00 +20°C° 0.1 mm 1 m/S 573 mmHg 67%
    11:00 +20°C° 0.5 mm 1 m/S 573 mmHg 65%
    12:00 +21°C° 0.5 mm 1 m/S 573 mmHg 63%
    13:00 +21°C° 0.5 mm 2 m/S 572 mmHg 61%
    14:00 +20°C° 0.7 mm 2 m/S 571 mmHg 64%
    15:00 +19°C° 0.7 mm 2 m/S 571 mmHg 68%
    16:00 +19°C° 0.7 mm 2 m/S 570 mmHg 71%
    17:00 +16°C° 0.5 mm 1 m/S 569 mmHg 78%
    18:00 +14°C° 0.5 mm 1 m/S 568 mmHg 84%
    19:00 +12°C° 0.5 mm 1 m/S 568 mmHg 91%
    20:00 +12°C° 0.1 mm 1 m/S 568 mmHg 90%
    21:00 +11°C° 0.1 mm 1 m/S 568 mmHg 89%
    22:00 +11°C° 0.1 mm 1 m/S 569 mmHg 88%
    23:00 +11°C° 0 mm 1 m/S 568 mmHg 87%

    22 September, Sonntag

    Zeit Temperatur Niederschläge Wind Luftdruck Luftfeuchtigkeit
    00:00 +11°C° 0 mm 1 m/S 568 mmHg 86%
    01:00 +11°C° 0 mm 1 m/S 568 mmHg 86%
    02:00 +11°C° 0.3 mm 1 m/S 568 mmHg 87%
    03:00 +11°C° 0.3 mm 1 m/S 568 mmHg 89%
    04:00 +12°C° 0.3 mm 1 m/S 568 mmHg 90%
    05:00 +12°C° 0 mm 1 m/S 569 mmHg 90%
    06:00 +12°C° 0 mm 1 m/S 569 mmHg 90%
    07:00 +12°C° 0 mm 1 m/S 570 mmHg 90%
    08:00 +14°C° 0.1 mm 1 m/S 571 mmHg 82%
    09:00 +16°C° 0.1 mm 1 m/S 572 mmHg 75%
    10:00 +19°C° 0.1 mm 1 m/S 573 mmHg 67%
    11:00 +19°C° 0.4 mm 2 m/S 573 mmHg 65%
    12:00 +19°C° 0.4 mm 2 m/S 573 mmHg 63%
    13:00 +20°C° 0.4 mm 2 m/S 572 mmHg 61%
    14:00 +19°C° 0.9 mm 2 m/S 572 mmHg 66%
    15:00 +19°C° 0.9 mm 2 m/S 571 mmHg 70%
    16:00 +19°C° 0.9 mm 1 m/S 570 mmHg 74%
    17:00 +16°C° 0.6 mm 1 m/S 570 mmHg 80%
    18:00 +14°C° 0.6 mm 1 m/S 569 mmHg 86%
    19:00 +12°C° 0.6 mm 1 m/S 568 mmHg 92%
    20:00 +12°C° 0.1 mm 1 m/S 569 mmHg 91%
    21:00 +11°C° 0.1 mm 1 m/S 569 mmHg 89%
    22:00 +11°C° 0.1 mm 1 m/S 569 mmHg 88%
    23:00 +11°C° 0 mm 1 m/S 569 mmHg 88%
    Mehr zeigen